• In Belarus
  • List of Countries
  • For 7 days
  • Water Temperature
  • Weather Map
  • Weather Widgets
  • user-avatar
    Login

    Hourly Weather Encamp

    Today, 17 August, Saturday

    Time Temperature Precipitation Wind Pressure Humidity
    00:00 +14°C° 0 mm 1 mps 626 mmHg 52%
    01:00 +14°C° 0 mm 1 mps 626 mmHg 52%
    02:00 +13°C° 0 mm 1 mps 625 mmHg 51%
    03:00 +13°C° 0 mm 1 mps 625 mmHg 51%
    04:00 +14°C° 0 mm 1 mps 625 mmHg 53%
    05:00 +14°C° 0 mm 1 mps 626 mmHg 54%
    06:00 +14°C° 0 mm 1 mps 626 mmHg 56%
    07:00 +18°C° 0 mm 1 mps 627 mmHg 51%
    08:00 +21°C° 0 mm 1 mps 628 mmHg 45%
    09:00 +24°C° 0 mm 2 mps 629 mmHg 40%
    10:00 +25°C° 0 mm 2 mps 629 mmHg 38%
    11:00 +26°C° 0 mm 2 mps 630 mmHg 36%
    12:00 +27°C° 0 mm 2 mps 630 mmHg 35%
    13:00 +27°C° 0 mm 3 mps 629 mmHg 35%
    14:00 +27°C° 0 mm 3 mps 629 mmHg 36%
    15:00 +27°C° 0 mm 3 mps 628 mmHg 37%
    16:00 +25°C° 0 mm 2 mps 628 mmHg 45%
    17:00 +24°C° 0 mm 2 mps 627 mmHg 54%
    18:00 +22°C° 0 mm 1 mps 626 mmHg 62%
    19:00 +20°C° 0 mm 1 mps 625 mmHg 70%
    20:00 +19°C° 0 mm 1 mps 625 mmHg 77%
    21:00 +16°C° 0 mm 1 mps 625 mmHg 85%
    22:00 +16°C° 0 mm 1 mps 624 mmHg 84%
    23:00 +16°C° 0 mm 1 mps 624 mmHg 84%

    Tomorrow, 18 August, Sunday

    Time Temperature Precipitation Wind Pressure Humidity
    00:00 +16°C° 0 mm 1 mps 624 mmHg 83%
    01:00 +16°C° 0 mm 1 mps 624 mmHg 81%
    02:00 +15°C° 0 mm 1 mps 624 mmHg 79%
    03:00 +15°C° 0 mm 1 mps 623 mmHg 77%
    04:00 +15°C° 0 mm 1 mps 623 mmHg 74%
    05:00 +16°C° 0 mm 1 mps 624 mmHg 70%
    06:00 +16°C° 0 mm 1 mps 624 mmHg 67%
    07:00 +20°C° 0 mm 1 mps 625 mmHg 57%
    08:00 +21°C° 0 mm 2 mps 626 mmHg 47%
    09:00 +25°C° 0 mm 2 mps 628 mmHg 37%
    10:00 +26°C° 0 mm 3 mps 628 mmHg 35%
    11:00 +26°C° 0 mm 3 mps 628 mmHg 33%
    12:00 +27°C° 0 mm 4 mps 628 mmHg 31%
    13:00 +27°C° 0 mm 4 mps 628 mmHg 33%
    14:00 +27°C° 0 mm 4 mps 628 mmHg 35%
    15:00 +26°C° 0 mm 4 mps 627 mmHg 36%
    16:00 +24°C° 0.5 mm 3 mps 627 mmHg 47%
    17:00 +21°C° 0.5 mm 2 mps 626 mmHg 59%
    18:00 +19°C° 0.5 mm 2 mps 625 mmHg 70%
    19:00 +18°C° 1.3 mm 2 mps 625 mmHg 78%
    20:00 +16°C° 1.3 mm 2 mps 625 mmHg 85%
    21:00 +15°C° 1.3 mm 2 mps 625 mmHg 93%
    22:00 +14°C° 0.3 mm 1 mps 625 mmHg 93%
    23:00 +14°C° 0.3 mm 1 mps 625 mmHg 93%

    Day after tomorrow, 19 August, Monday

    Time Temperature Precipitation Wind Pressure Humidity
    00:00 +14°C° 0.3 mm 1 mps 625 mmHg 93%
    01:00 +13°C° 0 mm 1 mps 625 mmHg 93%
    02:00 +12°C° 0 mm 0 mps 625 mmHg 93%
    03:00 +12°C° 0 mm 0 mps 625 mmHg 93%
    04:00 +12°C° 0 mm 0 mps 625 mmHg 92%
    05:00 +13°C° 0 mm 1 mps 625 mmHg 91%
    06:00 +13°C° 0 mm 1 mps 625 mmHg 89%
    07:00 +15°C° 0 mm 1 mps 626 mmHg 82%
    08:00 +18°C° 0 mm 1 mps 627 mmHg 74%
    09:00 +20°C° 0 mm 1 mps 628 mmHg 66%
    10:00 +20°C° 0 mm 2 mps 628 mmHg 60%
    11:00 +21°C° 0 mm 2 mps 629 mmHg 55%
    12:00 +24°C° 0 mm 3 mps 629 mmHg 49%
    13:00 +22°C° 0.5 mm 3 mps 629 mmHg 54%
    14:00 +22°C° 0.5 mm 3 mps 628 mmHg 58%
    15:00 +21°C° 0.5 mm 2 mps 628 mmHg 63%
    16:00 +20°C° 0.7 mm 2 mps 627 mmHg 68%
    17:00 +18°C° 0.7 mm 2 mps 627 mmHg 74%
    18:00 +18°C° 0.7 mm 1 mps 626 mmHg 80%
    19:00 +16°C° 0.2 mm 1 mps 626 mmHg 83%
    20:00 +15°C° 0.2 mm 1 mps 626 mmHg 86%
    21:00 +14°C° 0.2 mm 1 mps 626 mmHg 89%
    22:00 +14°C° 0 mm 1 mps 626 mmHg 89%
    23:00 +14°C° 0 mm 1 mps 626 mmHg 88%

    20 August, Tuesday

    Time Temperature Precipitation Wind Pressure Humidity
    00:00 +12°C° 0 mm 0 mps 626 mmHg 88%
    01:00 +12°C° 0 mm 0 mps 626 mmHg 89%
    02:00 +12°C° 0 mm 0 mps 626 mmHg 90%
    03:00 +12°C° 0 mm 0 mps 626 mmHg 92%
    04:00 +13°C° 0.3 mm 1 mps 626 mmHg 92%
    05:00 +13°C° 0.3 mm 1 mps 627 mmHg 93%
    06:00 +13°C° 0.3 mm 1 mps 627 mmHg 94%
    07:00 +13°C° 1 mm 1 mps 627 mmHg 94%
    08:00 +13°C° 1 mm 1 mps 627 mmHg 94%
    09:00 +13°C° 1 mm 1 mps 628 mmHg 94%
    10:00 +13°C° 1 mm 1 mps 628 mmHg 93%
    11:00 +13°C° 1 mm 1 mps 628 mmHg 92%
    12:00 +13°C° 1 mm 1 mps 628 mmHg 91%
    13:00 +13°C° 0.4 mm 1 mps 628 mmHg 89%
    14:00 +14°C° 0.4 mm 1 mps 629 mmHg 88%
    15:00 +14°C° 0.4 mm 1 mps 629 mmHg 86%
    16:00 +14°C° 0.1 mm 1 mps 629 mmHg 87%
    17:00 +13°C° 0.1 mm 1 mps 628 mmHg 88%
    18:00 +13°C° 0.1 mm 2 mps 628 mmHg 89%
    19:00 +12°C° 0 mm 2 mps 628 mmHg 90%
    20:00 +10°C° 0 mm 2 mps 628 mmHg 92%
    21:00 +9°C° 0 mm 2 mps 628 mmHg 93%
    22:00 +9°C° 0 mm 2 mps 628 mmHg 93%
    23:00 +8°C° 0 mm 2 mps 628 mmHg 92%

    21 August, Wednesday

    Time Temperature Precipitation Wind Pressure Humidity
    00:00 +8°C° 0 mm 2 mps 628 mmHg 92%
    01:00 +7°C° 0 mm 2 mps 627 mmHg 91%
    02:00 +7°C° 0 mm 2 mps 627 mmHg 90%
    03:00 +7°C° 0 mm 2 mps 627 mmHg 90%
    04:00 +7°C° 0 mm 2 mps 627 mmHg 86%
    05:00 +8°C° 0 mm 1 mps 627 mmHg 83%
    06:00 +9°C° 0 mm 1 mps 627 mmHg 80%
    07:00 +12°C° 0 mm 1 mps 629 mmHg 69%
    08:00 +15°C° 0 mm 1 mps 630 mmHg 58%
    09:00 +18°C° 0 mm 1 mps 631 mmHg 46%
    10:00 +19°C° 0 mm 1 mps 631 mmHg 44%
    11:00 +20°C° 0 mm 1 mps 631 mmHg 42%
    12:00 +21°C° 0 mm 1 mps 631 mmHg 39%
    13:00 +21°C° 0 mm 1 mps 631 mmHg 41%
    14:00 +21°C° 0 mm 1 mps 630 mmHg 42%
    15:00 +21°C° 0 mm 1 mps 630 mmHg 44%
    16:00 +19°C° 0 mm 1 mps 629 mmHg 52%
    17:00 +18°C° 0 mm 1 mps 629 mmHg 59%
    18:00 +15°C° 0 mm 1 mps 628 mmHg 67%
    19:00 +14°C° 0 mm 1 mps 628 mmHg 72%
    20:00 +12°C° 0 mm 1 mps 628 mmHg 77%
    21:00 +10°C° 0 mm 1 mps 627 mmHg 81%
    22:00 +10°C° 0 mm 1 mps 627 mmHg 81%
    23:00 +10°C° 0 mm 1 mps 627 mmHg 80%

    22 August, Thursday

    Time Temperature Precipitation Wind Pressure Humidity
    00:00 +10°C° 0 mm 1 mps 627 mmHg 79%
    01:00 +10°C° 0 mm 1 mps 627 mmHg 78%
    02:00 +10°C° 0 mm 1 mps 626 mmHg 77%
    03:00 +10°C° 0 mm 1 mps 626 mmHg 76%
    04:00 +10°C° 0 mm 1 mps 627 mmHg 74%
    05:00 +9°C° 0 mm 2 mps 627 mmHg 72%
    06:00 +9°C° 0 mm 2 mps 627 mmHg 69%
    07:00 +13°C° 0 mm 1 mps 628 mmHg 57%
    08:00 +16°C° 0 mm 1 mps 629 mmHg 44%
    09:00 +20°C° 0 mm 1 mps 631 mmHg 32%
    10:00 +21°C° 0 mm 1 mps 631 mmHg 30%
    11:00 +23°C° 0 mm 1 mps 631 mmHg 27%
    12:00 +24°C° 0 mm 1 mps 631 mmHg 25%
    13:00 +24°C° 0 mm 1 mps 631 mmHg 27%
    14:00 +24°C° 0 mm 1 mps 630 mmHg 28%
    15:00 +23°C° 0 mm 2 mps 630 mmHg 29%
    16:00 +22°C° 0 mm 1 mps 629 mmHg 39%
    17:00 +20°C° 0 mm 1 mps 628 mmHg 48%
    18:00 +18°C° 0 mm 1 mps 627 mmHg 57%
    19:00 +15°C° 0 mm 1 mps 627 mmHg 59%
    20:00 +14°C° 0 mm 1 mps 627 mmHg 61%
    21:00 +12°C° 0 mm 1 mps 627 mmHg 63%
    22:00 +12°C° 0 mm 1 mps 626 mmHg 66%
    23:00 +12°C° 0 mm 1 mps 626 mmHg 69%
    Show more